TimeCST,TemperatureF,Dew PointF,Humidity,Sea Level PressureIn,VisibilityMPH,Wind Direction,Wind SpeedMPH,Gust SpeedMPH,PrecipitationIn,Events,Conditions,WindDirDegrees,DateUTC
12:55 AM,44.2,37.9,79,30.20,10.0,North,4.6,-,N/A,,Clear,360,2013-01-22 06:55:00
1:55 AM,42.6,36.1,78,30.21,10.0,North,4.6,-,N/A,,Clear,360,2013-01-22 07:55:00
2:55 AM,39.4,34.3,82,30.22,10.0,North,6.9,-,N/A,,Clear,350,2013-01-22 08:55:00
3:55 AM,35.6,32.7,89,30.23,10.0,North,6.9,-,N/A,,Clear,360,2013-01-22 09:55:00
4:55 AM,35.4,31.6,86,30.26,10.0,North,6.9,-,N/A,,Clear,350,2013-01-22 10:55:00
5:55 AM,35.4,31.1,84,30.28,10.0,North,8.1,-,N/A,,Clear,350,2013-01-22 11:55:00
6:55 AM,36.0,30.2,80,30.31,10.0,North,8.1,-,N/A,,Clear,360,2013-01-22 12:55:00
7:55 AM,39.7,29.3,66,30.33,10.0,North,6.9,-,N/A,,Clear,10,2013-01-22 13:55:00
8:55 AM,43.5,26.2,51,30.35,10.0,North,11.5,-,N/A,,Mostly Cloudy,10,2013-01-22 14:55:00
9:55 AM,48.7,23.4,37,30.37,10.0,North,11.5,-,N/A,,Mostly Cloudy,10,2013-01-22 15:55:00
10:55 AM,53.4,20.5,28,30.35,10.0,North,11.5,-,N/A,,Mostly Cloudy,10,2013-01-22 16:55:00
11:58 AM,55.6,21.6,27,30.32,10.0,NE,8.1,-,N/A,,Mostly Cloudy,40,2013-01-22 17:58:00
12:55 PM,57.0,23.2,27,30.29,10.0,NNW,8.1,-,N/A,,Mostly Cloudy,340,2013-01-22 18:55:00
1:55 PM,57.7,25.9,29,30.27,10.0,North,6.9,-,N/A,,Mostly Cloudy,350,2013-01-22 19:55:00
2:55 PM,58.5,25.9,29,30.28,6.0,NNW,6.9,-,N/A,,Smoke,340,2013-01-22 20:55:00
3:55 PM,57.4,27.1,31,30.29,10.0,NW,5.8,-,N/A,,Mostly Cloudy,320,2013-01-22 21:55:00
4:55 PM,54.5,30.7,40,30.29,10.0,NW,4.6,-,N/A,,Scattered Clouds,310,2013-01-22 22:55:00
5:55 PM,46.4,33.6,61,30.29,10.0,Calm,Calm,-,N/A,,Partly Cloudy,0,2013-01-22 23:55:00
6:55 PM,41.5,32.4,70,30.32,10.0,Calm,Calm,-,N/A,,Clear,0,2013-01-23 00:55:00
7:55 PM,39.4,32.2,75,30.35,10.0,Calm,Calm,-,N/A,,Clear,0,2013-01-23 01:55:00
8:55 PM,37.9,32.2,80,30.36,10.0,Calm,Calm,-,N/A,,Clear,0,2013-01-23 02:55:00
9:55 PM,36.0,31.6,84,30.38,10.0,Calm,Calm,-,N/A,,Clear,0,2013-01-23 03:55:00
10:55 PM,34.7,30.9,86,30.38,10.0,Calm,Calm,-,N/A,,Clear,0,2013-01-23 04:55:00
11:55 PM,34.7,30.7,85,30.38,10.0,Calm,Calm,-,N/A,,Clear,0,2013-01-23 05:55:00